Regional Weather Roundup
Issued by NWS Burlington, VT

Home | Current Version | Previous Version | Text Only | Print | Product List | Glossary On
Versions: 1 2 3 4 5 6 7 8 9 10 11 12 13 14 15 16 17 18 19 20 21 22 23 24 25 26 27 28 29 30 31 32 33 34 35 36 37 38 39 40 41 42 43 44 45 46 47 48 49 50
000
ASUS41 KBTV 040710
RWRBTV
VERMONT REGIONAL WEATHER ROUNDUP
NATIONAL WEATHER SERVICE BURLINGTON VT
200 AM EST WED MAR 04 2015

NOTE: "FAIR" INDICATES FEW OR NO CLOUDS BELOW 12,000 FEET WITH NO
SIGNIFICANT WEATHER AND/OR OBSTRUCTIONS TO VISIBILITY.

* THESE REPORTS ARE NOT UNDER NWS QUALITY CONTROL AND/OR DO NOT
  REPORT WEATHER SUCH AS PRECIPITATION AND FOG.

VTZ001>019-040800-
_____VERMONT_____


CITY           SKY/WX    TMP DP  RH WIND       PRES   REMARKS
BURLINGTON     CLOUDY    30  24  78 S18G35    29.57S WCI  18
MONTPELIER     CLOUDY    22  20  92 SE8       29.59F
MORRISVILLE    CLOUDY    29  22  75 S3        29.56F
ST. JOHNSBURY*   N/A     26  22  84 MISG      29.57F
LYNDONVILLE*   CLOUDY    24  20  87 SE6       29.57F
MIDDLEBURY*    MIX PCPN  30  30  99 S9        29.61S
RUTLAND*       CLOUDY    32  28  86 S3        29.60F
SPRINGFIELD    CLOUDY    24  22  91 VRB3      29.64F
HIGHGATE*      CLOUDY    29  23  78 S12G21    29.54F WCI  19
NEWPORT*       CLOUDY    23  20  90 S7        29.55F
BENNINGTON     CLOUDY    37  30  75 VRB7      29.64F
SUTTON*          N/A     21 N/A N/A MISG        N/A

_____LAKE CHAMPLAIN_____


CITY           SKY/WX    TMP DP  RH WIND       PRES   REMARKS

$$

NYZ007-026>031-035-052-083-040800-
_____NORTHERN NEW YORK_____


CITY           SKY/WX    TMP DP  RH WIND       PRES   REMARKS
PLATTSBURGH    CLOUDY    27  23  85 SE13      29.55F WCI  16
SARANAC LAKE   CLOUDY    29  27  92 SW13G24   29.49R FOG     WCI  19
MASSENA        LGT RAIN  33  31  92 SW14      29.58R
OGDENSBURG*    CLOUDY    34  30  86 W13G18    29.60R
POTSDAM*       CLOUDY    34  30  86 W15G21    29.58R
WATERTOWN      CLOUDY    35  31  85 SW14G23   29.65R
FT DRUM        CLOUDY    32  32  99 W13G18    29.61R
ALBANY         CLOUDY    32  26  78 S13G25    29.68F
GLENS FALLS    LGT SNOW  28  25  88 SW8       29.66F FOG

$$
NHZ002-005-011-040800-
_____NEW HAMPSHIRE_____


CITY           SKY/WX    TMP DP  RH WIND       PRES   REMARKS
LEBANON        FLURRIES  27  23  85 S9        29.62F
KEENE          CLOUDY    28  28 100 CALM      29.67F
MT WASHINGTON  BLWGSNOW  14  14 100 W77G85      N/A  VSB 0   WCI -15
PLYMOUTH       CLOUDY    23  23 100 CALM      29.66F FOG
WHITEFIELD     CLOUDY    26  23  88 CALM      29.56F

$$

_____REGIONAL QUEBEC LOCATIONS_____


CITY           SKY/WX    TMP DP  RH WIND       PRES   REMARKS
MONTREAL       FRZ DRZL  25  23  93 SW10      29.53S WCI  15
QUEBEC CITY    LGT SNOW  18  14  86 NE7       29.51F VSB 1
SHERBROOKE     FRZ RAIN  27  25  93 SW10G17   29.50F FOG     WCI  17

_____REGIONAL ONTARIO LOCATIONS_____


CITY           SKY/WX    TMP DP  RH WIND       PRES   REMARKS
OTTAWA         CLOUDY    23  21  93 W7        29.57R

______KEY______
VSB  - VISIBILITY IN MILES
WCI  - WIND CHILL INDEX
HX   - HEAT INDEX
$$
NNNN


USA.gov is the U.S. government's official web portal to all federal, state and local government web resources and services.